This is the latest recevied weather packets stored in our database for station/object WA1OUI. If no packets are shown the sender has not sent any weather packets the latest 1 day(s).
| Time | Temp. | Humidity | Pressure | Rain* | Wind** | Luminosity | Snow |
|---|---|---|---|---|---|---|---|
| 1836274696 | 14.44° C | 73% | 1018.5 hPa | 0 mm | 0.89 m/s, 343° | 0 W/m² | - |
| 1836274549 | 14.44° C | 72% | 1018.7 hPa | 0 mm | 1.34 m/s, 339° | 0 W/m² | - |
| 1836274394 | 14.44° C | 75% | 1018.4 hPa | 0 mm | 0.89 m/s, 327° | 0 W/m² | - |
| 1836274247 | 14.44° C | 73% | 1018.5 hPa | 0 mm | 1.34 m/s, 326° | 0 W/m² | - |
| 1836274093 | 14.44° C | 75% | 1018.5 hPa | 0 mm | 1.34 m/s, 325° | 0 W/m² | - |
| 1778065442 | 12.78° C | 96% | 1008.1 hPa | 0 mm | 0.45 m/s, 321° | 73 W/m² | - |
| 1778065138 | 12.22° C | 96% | 1008.2 hPa | 0 mm | 1.34 m/s, 355° | 61 W/m² | - |
| 1778064835 | 12.22° C | 96% | 1008.3 hPa | 0 mm | 0.89 m/s, 348° | 38 W/m² | - |
| 1778064532 | 12.22° C | 96% | 1008.3 hPa | 0 mm | 0.89 m/s, 348° | 38 W/m² | - |
| 1778064230 | 12.22° C | 96% | 1008.2 hPa | 0 mm | 0.89 m/s, 334° | 36 W/m² | - |
| 1778063927 | 11.67° C | 96% | 1008.1 hPa | 0 mm | 1.34 m/s, 345° | 16 W/m² | - |
| 1778063625 | 11.67° C | 95% | 1008.3 hPa | 0 mm | 1.34 m/s, 350° | 8 W/m² | - |
| 1778063322 | 11.67° C | 96% | 1008.1 hPa | 0 mm | 0.89 m/s, 334° | 14 W/m² | - |
| 1778063020 | 11.67° C | 96% | 1008 hPa | 0 mm | 0.89 m/s, 339° | 13 W/m² | - |
| 1778062717 | 11.67° C | 96% | 1007.9 hPa | 0 mm | 0.89 m/s, 334° | 14 W/m² | - |
| 1778062413 | 11.67° C | 95% | 1008.1 hPa | 0 mm | 0.89 m/s, 345° | 16 W/m² | - |
| 1778062111 | 11.67° C | 95% | 1008 hPa | 0 mm | 0.89 m/s, 337° | 15 W/m² | - |
| 1778061809 | 11.67° C | 95% | 1008 hPa | 0 mm | 0.89 m/s, 339° | 16 W/m² | - |
| 1778061507 | 11.67° C | 95% | 1008 hPa | 0 mm | 0.89 m/s, 335° | 8 W/m² | - |
| 1778061203 | 11.67° C | 95% | 1008.1 hPa | 0 mm | 1.34 m/s, 342° | 3 W/m² | - |
| 1778060900 | 11.67° C | 95% | 1007.9 hPa | 0 mm | 0.89 m/s, 331° | 2 W/m² | - |
| 1778060599 | 11.67° C | 95% | 1008.1 hPa | 0 mm | 0.89 m/s, 334° | 1 W/m² | - |
| 1778060297 | 11.67° C | 95% | 1007.8 hPa | 0 mm | 1.34 m/s, 347° | 1 W/m² | - |
| 1778059994 | 11.67° C | 94% | 1007.9 hPa | 0 mm | 1.34 m/s, 341° | 0 W/m² | - |
| 1778059692 | 11.67° C | 94% | 1007.9 hPa | 0 mm | 0.89 m/s, 344° | 0 W/m² | - |
* Rain latest hour (hover to see other rain measurements)
** Current wind speed in m/s (hover to see current wind gust speed)